Regional Weather Roundup
Issued by NWS

Home | Current Version | Previous Version | Graphics & Text | Print | Product List | Glossary On
Versions: 1 2 3 4 5 6 7 8 9 10 11 12 13 14 15 16 17 18 19 20 21 22 23 24 25 26 27 28 29 30 31 32 33 34 35 36 37 38 39 40 41 42 43 44 45 46 47 48 49 50
000
ASUS43 KLMK 222310
RWRKY
KENTUCKY REGIONAL WEATHER ROUNDUP
NATIONAL WEATHER SERVICE LOUISVILLE KY
700 PM EDT MON MAY 22 2017

NOTE "FAIR" INDICATES FEW OR NO CLOUDS BELOW 12,000 FEET
WITH NO SIGNIFICANT WEATHER AND/OR OBSTRUCTIONS TO VISIBILITY.

KYZ001>023-026-027-061>063-070>075-230000-
WESTERN AND SOUTH CENTRAL KENTUCKY

CITY           SKY/WX    TMP DP  RH WIND       PRES   REMARKS
PADUCAH        CLOUDY    74  43  32 VRB3      29.97F
HENDERSON      MOSUNNY   72  48  42 E5        30.00F
OWENSBORO      CLOUDY    73  50  44 S3        30.01S
HOPKINSVILLE   CLOUDY    71  48  44 E5        29.99S
BOWLING GREEN  MOSUNNY   70  53  54 E5        29.99F
GLASGOW        CLOUDY    68  50  52 E5        30.00F
$$

KYZ024-025-028>034-038-045-046-053-230000-
NORTH CENTRAL KENTUCKY

CITY           SKY/WX    TMP DP  RH WIND       PRES   REMARKS
LOUISVILLE/SDF PTSUNNY   72  47  40 E3        30.01F
LOUISVILLE/LOU SUNNY     72  47  40 CALM      30.02F
FORT KNOX      CLOUDY    68  49  49 SE3       30.00S
$$

KYZ035>037-039>044-047>052-055>060-089>105-230000-
NORTHEAST KENTUCKY

CITY           SKY/WX    TMP DP  RH WIND       PRES   REMARKS
LEXINGTON      CLOUDY    68  46  45 E6        30.04S
COVINGTON      MOSUNNY   69  43  38 CALM      30.03F
FRANKFORT      SUNNY     68  48  48 S5        30.02F
$$

KYZ054-064>069-076>088-106>120-230000-
SOUTHEAST KENTUCKY

CITY           SKY/WX    TMP DP  RH WIND       PRES   REMARKS
JACKSON        CLOUDY    66  53  63 CALM      30.03F
LONDON         CLOUDY    67  49  52 NE6       30.02F
SOMERSET       CLOUDY    64  48  55 N3        30.04F
MIDDLESBORO    MOSUNNY   70  56  61 N3        30.01S
MONTICELLO     MOCLDY    67  52  58 N10G16    30.04F
$$




USA.gov is the U.S. government's official web portal to all federal, state and local government web resources and services.